WS Maaseik 1 Meer informatie WS Maaseik 1


WS Maaseik 2 Meer informatie WS Maaseik 2


Regen radar Meer informatie rain snow radar


Bezoek onze andere website:

Vorige versie
weerstation Maaseik


Bezoek ook eens deze sites:

Weerstation Geleen



Het weer levert geen direct gevaar op.    Er zijn geen waarschuwingen afgegeven.

15 daagse weersverwachting Wolverhampton (GB)

  • Overzicht
  • Per uur
  • 15 dagen
  • Extra
  • Vergelijk
  • Kaarten
  • Dagkaart
  • Meer »
  • Info
  • Statistieken
  • Directe link
    Temp 6h Neerslag Wind  
 08:00     17:45    Daglengte: 9:45 Vandaag
13:00
15°
 
9
19:00
14°
1.9 mm
8
 08:02     17:43    Daglengte: 9:41 Morgen
01:00
14°
11.3 mm
9
warningclass
07:00
13°
21.8 mm
8
13:00
12°
14.0 mm
10
19:00
10°
9.9 mm
5
 08:04     17:41    Daglengte: 9:37 Zaterdag 30 Okt
01:00
 
5
07:00
10°
24.0 mm
8
13:00
11°
32.8 mm
2
19:00
10°
36.2 mm
4
 08:06     17:39    Daglengte: 9:33 Zondag 31 Okt
01:00
 
3
06:00
12.0 mm
6
Locatie info
Region: England
Latitude: 52.5886°N
Longitude: -2.1217°E
160 masl
Postcode: WV1 1
Temp/Neerslag /Baro Onweer/Dauwpunt
    Temp Baro 1h Neerslag Dauwpunt Wind UV Bewolking  
 08:00     17:45    Daglengte: 9:45 Vandaag
13:00
15°
1004.0 hPa   10.1°
9
Windvlaag: 15.9 m/s
56%
14:00
15°
1003.1 hPa   10.2°
9
Windvlaag: 15.9 m/s
21%
15:00
15°
1002.0 hPa   10.4°
9
Windvlaag: 16.4 m/s
23%
16:00
15°
1001.4 hPa   10.5°
9
Windvlaag: 16 m/s
86%
17:00
15°
1001.0 hPa
69%
10.7°
8
Windvlaag: 15 m/s
86%
18:00
14°
1000.6 hPa 0.6 mm
82%
10.8°
8
Windvlaag: 14 m/s
86%
19:00
14°
1000.3 hPa 1.2 mm
82%
10.6°
8
Windvlaag: 14.1 m/s
86%
20:00
13°
1000.1 hPa 2.1 mm
82%
10.3°
8
Windvlaag: 14.6 m/s
86%
21:00
13°
999.6 hPa 2.6 mm
82%
10.2°
8
Windvlaag: 14 m/s
86%
22:00
13°
998.6 hPa 1.8 mm
82%
10.0°
8
Windvlaag: 14.9 m/s
86%
23:00
13°
997.7 hPa 1.5 mm
82%
10.1°
9
Windvlaag: 15.2 m/s
78%
 08:02     17:43    Daglengte: 9:41 Morgen
00:00
14°
996.8 hPa 1.6 mm
82%
10.2°
9
Windvlaag: 17.3 m/s
86% warningclass
01:00
14°
995.8 hPa 1.7 mm
82%
10.7°
9
Windvlaag: 17.9 m/s
86% warningclass
02:00
14°
995.0 hPa 2.1 mm
82%
10.6°
9
Windvlaag: 18.2 m/s
86% warningclass
03:00
14°
994.6 hPa 2.6 mm
82%
9.9°
9
Windvlaag: 17.2 m/s
86% warningclass
04:00
13°
993.7 hPa 3.6 mm
82%
10.3°
8
Windvlaag: 15 m/s
86%
05:00
13°
993.4 hPa 4.5 mm
82%
10.2°
9
Windvlaag: 14.5 m/s
86%
06:00
13°
992.8 hPa 5.1 mm
82%
10.6°
8
Windvlaag: 14.6 m/s
86%
07:00
13°
992.3 hPa 3.9 mm
82%
10.4°
8
Windvlaag: 15 m/s
86%
08:00
13°
991.8 hPa 4.3 mm
82%
10.0°
7
Windvlaag: 14.4 m/s
86%
09:00
13°
991.8 hPa 3.4 mm
82%
8.5°
7
Windvlaag: 12 m/s
86%
10:00
13°
992.0 hPa
82%
6.0°
7
Windvlaag: 12.5 m/s
86%
11:00
13°
992.1 hPa
81%
5.5°
7
Windvlaag: 11.1 m/s
86%
12:00
13°
992.0 hPa 3.1 mm
81%
5.4°
8
Windvlaag: 12 m/s
49%
13:00
12°
992.5 hPa 3.2 mm
82%
5.6°
10
Windvlaag: 13.6 m/s
84%
14:00
12°
993.1 hPa 3.4 mm
82%
5.9°
8
Windvlaag: 9.8 m/s
52%
15:00
12°
994.3 hPa 3.6 mm
82%
5.7°
8
Windvlaag: 3.4 m/s
77%
16:00
11°
995.2 hPa 3.0 mm
76%
6.4°
6
Windvlaag: 2.6 m/s
50%
17:00
11°
995.8 hPa
18%
6.3°
4
Windvlaag: 4.3 m/s
12%
18:00
10°
996.4 hPa
14%
6.3°
5
Windvlaag: 7.3 m/s
17%
19:00
10°
Voelt als: 7.6°
997.0 hPa
14%
6.7°
5
Windvlaag: 8.2 m/s
14%
20:00
10°
Voelt als: 6.9°
997.3 hPa
14%
6.5°
5
Windvlaag: 9.4 m/s
36%
21:00
Voelt als: 6.8°
997.2 hPa
14%
6.8°
4
Windvlaag: 10.5 m/s
52%
22:00
Voelt als: 6.3°
997.1 hPa
14%
7.4°
4
Windvlaag: 11.7 m/s
49%
23:00
Voelt als: 6.3°
996.9 hPa
14%
8.0°
5
Windvlaag: 12.3 m/s
21%
 08:04     17:41    Daglengte: 9:37 Zaterdag 30 Okt
00:00
Voelt als: 6.2°
996.7 hPa
14%
8.1°
5
Windvlaag: 12 m/s
85%
01:00
Voelt als: 6.4°
996.2 hPa
14%
8.3°
5
Windvlaag: 13.3 m/s
76%
02:00
10°
Voelt als: 6.7°
995.8 hPa
69%
8.4°
6
Windvlaag: 12.8 m/s
86%
03:00
10°
Voelt als: 6.9°
995.2 hPa 3.9 mm
82%
8.5°
6
Windvlaag: 13 m/s
85%
04:00
10°
Voelt als: 7.1°
994.4 hPa 3.9 mm
82%
8.8°
6
Windvlaag: 13.1 m/s
85%
05:00
10°
Voelt als: 7.0°
993.7 hPa 4.4 mm
82%
8.6°
7
Windvlaag: 12.2 m/s
86%
06:00
10°
993.2 hPa 5.6 mm
82%
8.4°
8
Windvlaag: 12.8 m/s
86%
07:00
10°
992.9 hPa 6.2 mm
82%
8.1°
8
Windvlaag: 12.6 m/s
86%
08:00
10°
992.3 hPa 6.4 mm
82%
7.9°
7
Windvlaag: 12.6 m/s
86%
09:00
10°
Voelt als: 7.2°
992.2 hPa 7.3 mm
82%
8.2°
6
Windvlaag: 11.7 m/s
79%
10:00
10°
993.5 hPa 7.3 mm
90%
8.6°
4
Windvlaag: 13.5 m/s
93%
11:00
Voelt als: 7.9°
993.6 hPa 11.9 mm
35%
7.8°
3
Windvlaag: 12.7 m/s
91%
12:00
10°
Voelt als: 9.0°
993.6 hPa
22%
7.8°
2
Windvlaag: -0.7 m/s
71%
13:00
11°
993.6 hPa
21%
8.1°
2
Windvlaag: 4 m/s
73%
14:00
11°
993.3 hPa
21%
7.5°
3
Windvlaag: 3.8 m/s
64%
15:00
11°
993.3 hPa
21%
7.2°
3
Windvlaag: 3.2 m/s
94%
16:00
11°
993.7 hPa 12.1 mm
21%
7.3°
3
Windvlaag: 3.1 m/s
86%
17:00
11°
994.3 hPa 12.2 mm
21%
7.4°
3
Windvlaag: 2.5 m/s
89%
18:00
11°
994.9 hPa 12.0 mm
21%
7.4°
3
Windvlaag: 2.9 m/s
91%
19:00
10°
995.6 hPa
21%
6.0°
4
Windvlaag: 2.1 m/s
82%
20:00
Voelt als: 7.2°
996.2 hPa
21%
5.2°
4
Windvlaag: 2 m/s
87%
21:00
Voelt als: 6.7°
996.5 hPa
21%
4.8°
3
Windvlaag: 1.8 m/s
38%
22:00
Voelt als: 6.4°
996.9 hPa
21%
4.2°
3
Windvlaag: 3.4 m/s
45%
23:00
Voelt als: 5.7°
997.3 hPa
21%
4.5°
3
Windvlaag: 5 m/s
22%
 08:06     17:39    Daglengte: 9:33 Zondag 31 Okt
00:00
Voelt als: 5.4°
997.3 hPa
21%
4.9°
3
Windvlaag: 4.9 m/s
35%
01:00
Voelt als: 5.1°
997.4 hPa
21%
5.0°
3
Windvlaag: 6.1 m/s
56%
01:00
Voelt als: 4.8°
997.2 hPa
25%
5.8°
4
Windvlaag: 7 m/s
60%
02:00
Voelt als: 4.6°
996.9 hPa
21%
5.8°
4
Windvlaag: 8.1 m/s
50%
03:00
Voelt als: 4.5°
996.2 hPa
21%
5.5°
4
Windvlaag: 9.1 m/s
59%
04:00
Voelt als: 4.4°
995.3 hPa
21%
5.9°
4
Windvlaag: 8.4 m/s
80%
05:00
Voelt als: 4.3°
994.6 hPa
21%
6.0°
5
Windvlaag: 8.2 m/s
93%
06:00
Voelt als: 4.4°
993.5 hPa 12.0 mm
21%
5.9°
6
Windvlaag: 9.6 m/s
96%
07:00
Voelt als: 5.6°
992.1 hPa
80%
6.7°
5
Windvlaag: 17.6 m/s
100% warningclass
08:00
Voelt als: 6.0°
991.0 hPa 13.9 mm
100%
7.6°
6
Windvlaag: 18.1 m/s
100% warningclass
09:00
Voelt als: 6.7°
989.6 hPa 15.6 mm
100%
8.2°
5
Windvlaag: 9.6 m/s
100%
10:00
10°
Voelt als: 7.3°
987.9 hPa 16.3 mm
100%
7.3°
5
Windvlaag: 9.1 m/s
97%
11:00
10°
986.0 hPa 15.6 mm
100%
7.2°
5
Windvlaag: 9.2 m/s
99%
Temp/Neerslag /Baro Onweer/Dauwpunt
    Temp Baro Neerslag Dauwpunt Wind Bewolking  
 08:00     17:45    Daglengte: 9:45 Vandaag
13:00
15°
1004.0 hPa   10.1°
9
56%
16:00
15°
1001.4 hPa   10.5°
9
86%
19:00
14°
1000.3 hPa 1.9 mm 10.6°
8
86%
22:00
13°
998.6 hPa 6.5 mm 10.0°
8
86%
 08:02     17:43    Daglengte: 9:41 Morgen
01:00
14°
995.8 hPa 4.8 mm 10.7°
9
86% warningclass
04:00
13°
993.7 hPa 8.3 mm 10.3°
8
86%
07:00
13°
992.3 hPa 13.5 mm 10.4°
8
86%
10:00
13°
992.0 hPa 7.7 mm 6.0°
7
86%
13:00
12°
992.5 hPa 6.3 mm 5.6°
10
84%
16:00
11°
995.2 hPa 9.9 mm 6.4°
6
50%
19:00
10°
Voelt als: 7.6°
997.0 hPa   6.7°
5
14%
22:00
Voelt als: 6.3°
997.1 hPa   7.4°
4
49%
 08:04     17:41    Daglengte: 9:37 Zaterdag 30 Okt
01:00
Voelt als: 6.4°
996.2 hPa   8.3°
5
76%
04:00
10°
Voelt als: 7.1°
994.4 hPa 7.8 mm 8.8°
6
85%
07:00
10°
992.9 hPa 16.2 mm 8.1°
8
86%
10:00
10°
993.5 hPa 20.9 mm 8.6°
4
93%
13:00
11°
993.6 hPa 11.9 mm 8.1°
2
73%
16:00
11°
993.7 hPa 12.1 mm 7.3°
3
86%
19:00
10°
995.6 hPa 24.1 mm 6.0°
4
82%
22:00
Voelt als: 6.4°
996.9 hPa   4.2°
3
45%
 08:06     17:39    Daglengte: 9:33 Zondag 31 Okt
01:00
Voelt als: 5.1°
997.4 hPa   5.0°
3
56%
03:00
Voelt als: 4.5°
996.2 hPa   5.5°
4
59%
06:00
Voelt als: 4.4°
993.5 hPa 12.0 mm 5.9°
6
96%
09:00
Voelt als: 6.7°
989.6 hPa 29.4 mm 8.2°
5
100%
12:00
11°
985.0 hPa 46.6 mm 5.3°
5
91%
15:00
10°
991.6 hPa 52.4 mm 5.8°
5
1%
18:00
Voelt als: 3.7°
993.4 hPa 52.4 mm 3.9°
4
0%
21:00
Voelt als: 3.0°
993.0 hPa 52.4 mm 3.6°
5
0%
 08:08     17:37    Daglengte: 9:29 Maandag 01 Nov
00:00
Voelt als: 3.7°
992.0 hPa 52.4 mm 5.4°
5
1%
03:00
Voelt als: 2.1°
990.9 hPa 52.4 mm 4.2°
6
1%
06:00
Voelt als: 3.6°
989.8 hPa 52.5 mm 4.7°
8
1%
09:00
Voelt als: 3.6°
991.7 hPa 52.9 mm 4.1°
10
1%
12:00
Voelt als: 5.0°
994.1 hPa 53.2 mm 4.3°
10
1%
15:00
10°
Voelt als: 6.1°
996.3 hPa 53.5 mm 4.1°
9
1%
18:00
Voelt als: 4.2°
997.5 hPa 53.5 mm 3.6°
7
1%
21:00
Voelt als: 3.6°
997.7 hPa 53.5 mm 4.0°
5
1%
 08:10     17:35    Daglengte: 9:25 Dinsdag 02 Nov
00:00
Voelt als: 3.6°
996.2 hPa 53.6 mm 5.2°
5
1%
03:00
Voelt als: 3.4°
993.3 hPa 54.0 mm 6.0°
5
1%
06:00
Voelt als: 3.8°
991.1 hPa 56.6 mm 5.0°
6
1%
09:00
Voelt als: 4.2°
990.8 hPa 56.6 mm 4.9°
4
1%
12:00
10°
Voelt als: 6.9°
990.4 hPa 56.7 mm 4.4°
5
0%
15:00
Voelt als: 6.5°
989.7 hPa 57.0 mm 3.4°
4
0%
18:00
Voelt als: 2.5°
991.3 hPa 57.1 mm 4.6°
4
0%
21:00
Voelt als: 3.5°
993.6 hPa 57.1 mm 4.1°
3
1%
 08:11     17:33    Daglengte: 9:22 Woensdag 03 Nov
00:00
Voelt als: 2.3°
995.8 hPa 57.2 mm 3.9°
5
1%
03:00
Voelt als: 2.5°
998.3 hPa 58.2 mm 4.7°
6
1%
06:00
Voelt als: 1.1°
1001.0 hPa 58.2 mm 2.7°
4
1%
09:00
Voelt als: 2.9°
1003.4 hPa 58.3 mm 3.0°
5
1%
12:00
Voelt als: 5.4°
1004.8 hPa 58.3 mm 3.0°
7
0%
15:00
Voelt als: 4.9°
1006.2 hPa 58.5 mm 3.3°
6
0%
18:00
Voelt als: 2.5°
1009.3 hPa 58.5 mm 2.2°
3
0%
21:00
Voelt als: 1.3°
1012.0 hPa 58.5 mm 1.6°
2
0%
 08:13     17:32    Daglengte: 9:19 Donderdag 04 Nov
00:00
Voelt als: 0.4°
1013.7 hPa 58.5 mm 1.2°
2
0%
03:00
Voelt als: 0.7°
1015.0 hPa 58.5 mm 0.7°
2
0%
06:00
Voelt als: -0.2°
1016.2 hPa 58.5 mm 1.3°
3
0%
09:00
Voelt als: 1.6°
1017.9 hPa   1.4°
4
1%
12:00
Voelt als: 4.2°
1017.9 hPa 117.0 mm 3.0°
4
1%
18:00
Voelt als: 2.7°
1016.9 hPa 117.1 mm 2.0°
5
1%
 08:15     17:30    Daglengte: 9:15 Vrijdag 05 Nov
00:00
Voelt als: 5.3°
1015.5 hPa 117.1 mm 5.7°
7
1%
06:00
10°
Voelt als: 7.0°
1015.0 hPa 117.3 mm 7.5°
6
1%
12:00
11°
1017.4 hPa 118.1 mm 7.9°
6
1%
18:00
Voelt als: 6.1°
1020.0 hPa 118.8 mm 6.8°
4
1%
 08:17     17:28    Daglengte: 9:11 Zaterdag 06 Nov
00:00
Voelt als: 7.0°
1020.9 hPa 118.8 mm 7.4°
4
1%
06:00
Voelt als: 5.9°
1019.7 hPa 118.8 mm 6.7°
5
1%
12:00
12°
1017.5 hPa 119.5 mm 8.9°
9
1%
18:00
12°
1015.7 hPa 120.3 mm 9.4°
9
1%
 08:19     17:26    Daglengte: 9:07 Zondag 07 Nov
00:00
12°
1014.7 hPa 120.3 mm 9.8°
9
1%
06:00
Voelt als: 3.6°
1013.7 hPa 0.5 mm 3.0°
3
68%
12:00
Voelt als: 7.3°
1013.6 hPa 0.5 mm 4.2°
3
71%
18:00
Voelt als: 5.3°
1013.8 hPa 0.8 mm 3.5°
2
69%
 08:21     17:25    Daglengte: 9:04 Maandag 08 Nov
00:00
Voelt als: 3.7°
1014.8 hPa 0.6 mm 3.0°
3
59%
06:00
Voelt als: 3.1°
1015.6 hPa 0.4 mm 2.3°
2
67%
12:00
Voelt als: 6.9°
1016.7 hPa 0.3 mm 3.1°
3
63%
18:00
Voelt als: 5.3°
1017.3 hPa 0.2 mm 3.1°
2
66%
 08:22     17:23    Daglengte: 9:01 Dinsdag 09 Nov
00:00
Voelt als: 3.8°
1017.7 hPa 0.9 mm 3.2°
3
54%
06:00
Voelt als: 3.6°
1017.6 hPa 0.4 mm 3.0°
3
62%
12:00
Voelt als: 6.4°
1019.4 hPa 0.3 mm 3.2°
3
63%
18:00
Voelt als: 5.1°
1019.8 hPa 0.3 mm 3.4°
2
68%
 08:24     17:22    Daglengte: 8:58 Woensdag 10 Nov
00:00
Voelt als: 3.9°
1019.9 hPa 0.4 mm 3.5°
3
66%
06:00
Voelt als: 3.8°
1019.4 hPa 0.4 mm 3.4°
3
58%
12:00
Voelt als: 7.7°
1019.6 hPa 0.3 mm 4.7°
3
62%
18:00
Voelt als: 5.5°
1019.0 hPa 0.2 mm 4.6°
3
67%
 08:26     17:20    Daglengte: 8:54 Donderdag 11 Nov
00:00
Voelt als: 4.2°
1018.8 hPa 0.7 mm 4.2°
3
54%
06:00
Voelt als: 3.9°
1018.5 hPa 0.5 mm 3.4°
3
53%
12:00
Voelt als: 7.7°
1018.7 hPa 0.3 mm 4.3°
3
55%
18:00
Voelt als: 4.9°
1018.7 hPa 0.1 mm 3.3°
2
49%
 08:28     17:18    Daglengte: 8:50 Vrijdag 12 Nov
00:00
Voelt als: 3.1°
1019.0 hPa 0.1 mm 2.7°
2
44%
06:00
Voelt als: 2.8°
1018.7 hPa 0.1 mm 2.5°
2
44%
  CAPE Lifted Index Hail Supercell Tornado SRH 3km CL BTM PRES CL TOP PRES Swiss DWD icon SMHI TS
 08:00     17:45    Daglengte: 9:45 Vandaag
13:00 3 J/kg 6.2 K 0 % 0 % 0 % 0 m²/s² 0 0 10.58 2
14:00 3 J/kg 5.0 K 0 % 0 % 0 % 0 m²/s² 0 0 7.55 2
15:00 0 J/kg 2.4 K 0 % 0 % 0 % 0 m²/s² 0 0 4.26 3
16:00 0 J/kg 2.6 K 0 % 0 % 0 % 0 m²/s² 0 0 4.85 3
17:00 2 J/kg 2.2 K 0 % 0 % 0 % 0 m²/s² 0 0 3.22 3
18:00 0 J/kg 2.4 K 0 % 0 % 0 % 0 m²/s² 0 0 2.52 61
19:00 0 J/kg 2.4 K 0 % 0 % 0 % 0 m²/s² 0 0 2.52 61
20:00 0 J/kg 2.6 K 0 % 0 % 0 % 0 m²/s² 0 0 2.72 61
21:00 0 J/kg 1.5 K 0 % 0 % 0 % 0 m²/s² 0 0 1.68 61
22:00 0 J/kg 0.9 K 0 % 0 % 0 % 0 m²/s² 0 0 1.29 61
23:00 0 J/kg 0.9 K 0 % 0 % 0 % 0 m²/s² 0 0 3.12 3
 08:02     17:43    Daglengte: 9:41 Morgen
00:00 16 J/kg 1.6 K 0 % 0 % 0 % 0 m²/s² 0 0 2.8 61
01:00 45 J/kg 2.5 K 0 % 0 % 0 % 0 m²/s² 0 0 2.62 80
02:00 44 J/kg 2.1 K 0 % 0 % 0 % 0 m²/s² 0 0 2.19 61
03:00 34 J/kg 2.2 K 0 % 0 % 0 % 0 m²/s² 0 0 2.38 61
04:00 19 J/kg 1.5 K 0 % 0 % 0 % 0 m²/s² 0 0 1.89 61
05:00 11 J/kg 1.1 K 0 % 0 % 0 % 0 m²/s² 0 0 1.43 61
06:00 104 J/kg 0.6 K 0 % 0 % 0 % 0 m²/s² 0 0 1.11 63
07:00 166 J/kg 0.1 K 0 % 0 % 0 % 0 m²/s² 0 0 0.43 61
08:00 261 J/kg -0.3 K 0 % 0 % 0 % 0 m²/s² 0 0 0.57 61
09:00 245 J/kg -0.4 K 0 % 0 % 0 % 0 m²/s² 0 0 1.64 61
10:00 216 J/kg -0.1 K 0 % 0 % 0 % 0 m²/s² 0 0 2.87 61
11:00 119 J/kg 0.6 K 0 % 0 % 0 % 0 m²/s² 0 0 5.34 3
12:00 121 J/kg 0.1 K 0 % 0 % 0 % 0 m²/s² 0 0 2.77 3
13:00 5 J/kg 4.4 K 0 % 0 % 0 % 0 m²/s² 0 0 7.28 80
14:00 1 J/kg 6.6 K 0 % 0 % 0 % 0 m²/s² 0 0 9.15 80
15:00 0 J/kg 6.1 K 0 % 0 % 0 % 0 m²/s² 0 0 8.08 80
16:00 2 J/kg 3.9 K 0 % 0 % 0 % 0 m²/s² 0 0 7.29 3
17:00 1 J/kg 2.2 K 0 % 0 % 0 % 0 m²/s² 0 0 2.89 2
18:00 6 J/kg 0.0 K 0 % 0 % 0 % 0 m²/s² 0 0 0.84 2
19:00 56 J/kg -0.4 K 0 % 0 % 0 % 0 m²/s² 0 0 1.13 2
20:00 227 J/kg -0.8 K 0 % 0 % 0 % 0 m²/s² 0 0 1.18 3
21:00 74 J/kg 0.1 K 0 % 0 % 0 % 0 m²/s² 0 0 1.78 3
22:00 0 J/kg 0.9 K 0 % 0 % 0 % 0 m²/s² 0 0 2.76 3
23:00 0 J/kg 0.9 K 0 % 0 % 0 % 0 m²/s² 0 0 1.38 2
 08:04     17:41    Daglengte: 9:37 Zaterdag 30 Okt
00:00 1 J/kg -0.7 K 0 % 0 % 0 % 0 m²/s² 0 0 -0.43 3
01:00 33 J/kg 0.1 K 0 % 0 % 0 % 0 m²/s² 0 0 0.97 3
02:00 33 J/kg 1.1 K 0 % 0 % 0 % 0 m²/s² 0 0 2.87 3
03:00 0 J/kg 2.2 K 0 % 0 % 0 % 0 m²/s² 0 0 3.04 61
04:00 0 J/kg 2.2 K 0 % 0 % 0 % 0 m²/s² 0 0 2.86 61
05:00 11 J/kg 2.5 K 0 % 0 % 0 % 0 m²/s² 0 0 2.98 61
06:00 5 J/kg 2.8 K 0 % 0 % 0 % 0 m²/s² 0 0 3.04 61
07:00 43 J/kg 3.0 K 0 % 0 % 0 % 0 m²/s² 0 0 3.24 61
08:00 42 J/kg 3.3 K 0 % 0 % 0 % 0 m²/s² 0 0 3.57 80
09:00 7 J/kg 3.2 K 0 % 0 % 0 % 0 m²/s² 0 0 3.44 80
10:00 0 J/kg 3.5 K 0 % 0 % 0 % 0 m²/s² 0 0 3.71 80
11:00 0 J/kg 4.8 K 0 % 0 % 0 % 0 m²/s² 0 0 5.07 2
12:00 0 J/kg 5.8 K 0 % 0 % 0 % 0 m²/s² 0 0 6.34 2
13:00 0 J/kg 5.5 K 0 % 0 % 0 % 0 m²/s² 0 0 6.43 2
14:00 0 J/kg 4.9 K 0 % 0 % 0 % 0 m²/s² 0 0 6.73 2
15:00 37 J/kg 3.9 K 0 % 0 % 0 % 0 m²/s² 0 0 7.98 3
16:00 119 J/kg 2.6 K 0 % 0 % 0 % 0 m²/s² 0 0 7.01 3
17:00 181 J/kg 1.9 K 0 % 0 % 0 % 0 m²/s² 0 0 3.4 3
18:00 207 J/kg 1.4 K 0 % 0 % 0 % 0 m²/s² 0 0 2.51 3
19:00 22 J/kg 3.4 K 0 % 0 % 0 % 0 m²/s² 0 0 9.43 3
20:00 0 J/kg 4.5 K 0 % 0 % 0 % 0 m²/s² 0 0 10.2 3
21:00 0 J/kg 4.9 K 0 % 0 % 0 % 0 m²/s² 0 0 10.3 3
22:00 0 J/kg 4.9 K 0 % 0 % 0 % 0 m²/s² 0 0 10.45 3
23:00 0 J/kg 4.8 K 0 % 0 % 0 % 0 m²/s² 0 0 10.68 3
 08:06     17:39    Daglengte: 9:33 Zondag 31 Okt
00:00 0 J/kg 4.3 K 0 % 0 % 0 % 0 m²/s² 0 0 10.39 3
01:00 0 J/kg 3.2 K 0 % 0 % 0 % 0 m²/s² 0 0 8.96 3
01:00 0 J/kg 4.7 K 0 % 0 % 0 % 0 m²/s² 0 0 8.6 3
02:00 0 J/kg 4.7 K 0 % 0 % 0 % 0 m²/s² 0 0 7.79 3
03:00 0 J/kg 3.5 K 0 % 0 % 0 % 0 m²/s² 0 0 6.95 3
04:00 0 J/kg 2.4 K 0 % 0 % 0 % 0 m²/s² 0 0 5.04 3
05:00 0 J/kg 2.5 K 0 % 0 % 0 % 0 m²/s² 0 0 3.4 3
06:00 0 J/kg 2.7 K 0 % 0 % 0 % 0 m²/s² 0 0 3.03 3
07:00 0 J/kg 2.6 K 0 % 0 % 0 % 0 m²/s² 0 0 2.81 3
08:00 8 J/kg 0.8 K 0 % 0 % 0 % 0 m²/s² 0 0 1.1 61
09:00 111 J/kg 1.1 K 0 % 0 % 0 % 0 m²/s² 0 0 1.67 61
10:00 8 J/kg 2.6 K 0 % 0 % 0 % 0 m²/s² 0 0 3.26 63
11:00 36 J/kg 2.2 K 0 % 0 % 0 % 0 m²/s² 0 0 2.95 61
Temp Baro Wind Neerslag
  EWN Forecast EWN WRFDA DWD ICON FMI HIRLAM MET Norway GFS
 08:00     17:45    Daglengte: 9:45 Vandaag
13:00 14.9° 1004.0 hPa 9.3 m/s 0.0 mm 14.5° 1002.5 hPa 8.5 m/s 0.0 mm 15.1° 1004.2 hPa 6.4 m/s -2.0 mm 15.4° 1004.2 hPa 11.4 m/s 0.0 mm 15.1° 1003.0 hPa 9.9 m/s
16:00 15.0° 1001.4 hPa 8.8 m/s 0.0 mm 15.7° 1000.2 hPa 8.1 m/s 0.0 mm 15.7° 1001.3 hPa 6.5 m/s 0.0 mm 15.0° 1002.0 hPa 9.5 m/s 0.0 mm 14.8° 1001.0 hPa 9.7 m/s
19:00 13.7° 1000.3 hPa 7.8 m/s 1.9 mm 14.0° 999.4 hPa 7.1 m/s 4.0 mm 13.7° 1000.3 hPa 6.7 m/s 0.7 mm 14.1° 1000.9 hPa 8.1 m/s 0.0 mm 13.7° 999.5 hPa 8.1 m/s
22:00 13.2° 998.6 hPa 8.5 m/s 6.5 mm 13.7° 998.1 hPa 8.6 m/s 16.4 mm 13.1° 999.1 hPa 6.0 m/s 3.1 mm 13.3° 998.7 hPa 8.9 m/s 0.0 mm 13.3° 998.5 hPa 7.7 m/s
 08:02     17:43    Daglengte: 9:41 Morgen
01:00 13.7° 995.8 hPa 9.3 m/s 4.8 mm 13.6° 996.4 hPa 7.9 m/s 20.5 mm 13.8° 996.0 hPa 6.6 m/s 0.8 mm 13.8° 995.7 hPa 9.7 m/s 0.0 mm 12.4° 996.6 hPa 3.2 m/s
04:00 13.5° 993.7 hPa 8.1 m/s 8.3 mm 13.4° 992.8 hPa 8.3 m/s 32.0 mm 13.6° 993.8 hPa 7.5 m/s 2.0 mm 13.6° 992.8 hPa 9.8 m/s 0.0 mm 12.8° 993.4 hPa 7.5 m/s
07:00 12.5° 992.3 hPa 7.7 m/s 13.5 mm 13.4° 991.9 hPa 6.8 m/s 37.8 mm 12.3° 993.0 hPa 5.1 m/s 5.6 mm 13.4° 991.2 hPa 8.1 m/s 0.0 mm 12.4° 993.4 hPa 8.7 m/s
10:00 12.5° 992.0 hPa 7.0 m/s 7.7 mm 13.9° 990.7 hPa 9.3 m/s 40.8 mm 12.5° 992.7 hPa 4.9 m/s 3.3 mm 12.4° 992.1 hPa 11.9 m/s 0.0 mm 12.5° 992.6 hPa 8.4 m/s
13:00 12.1° 992.5 hPa 9.9 m/s 6.3 mm 10.1° 991.8 hPa 12.1 m/s 41.8 mm 13.5° 992.7 hPa 4.4 m/s 1.1 mm 12.4° 993.6 hPa 11.8 m/s 0.0 mm 11.0° 991.2 hPa 10.2 m/s
16:00 11.4° 995.2 hPa 6.2 m/s 9.9 mm 10.8° 996.0 hPa 6.4 m/s 42.4 mm 12.2° 994.6 hPa 4.6 m/s 2.5 mm 11.8° 995.0 hPa 6.2 m/s 0.0 mm 10.0° 996.7 hPa 7.2 m/s
19:00 9.9° 997.0 hPa 4.8 m/s 0.0 mm 10.5° 995.9 hPa 4.6 m/s 43.2 mm 10.2° 997.1 hPa 2.3 m/s 0.0 mm 10.4° 996.5 hPa 6.1 m/s 0.0 mm 9.1° 997.5 hPa 5.9 m/s
22:00 8.8° 997.1 hPa 4.3 m/s 0.0 mm 9.7° 996.4 hPa 6.6 m/s 44.3 mm 8.9° 997.1 hPa 3.1 m/s 0.0 mm 8.3° 997.1 hPa 3.7 m/s 0.0 mm 8.9° 997.7 hPa 6.0 m/s
 08:04     17:41    Daglengte: 9:37 Zaterdag 30 Okt
01:00 9.2° 996.2 hPa 5.5 m/s 0.0 mm 10.5° 994.6 hPa 6.7 m/s 48.5 mm 9.1° 996.4 hPa 4.8 m/s 0.0 mm 8.6° 996.0 hPa 4.9 m/s 0.0 mm 9.5° 996.5 hPa 7.8 m/s
04:00 10.0° 994.4 hPa 6.1 m/s 7.8 mm 9.9° 994.5 hPa 5.8 m/s 52.7 mm 10.1° 994.6 hPa 5.7 m/s 1.5 mm 9.3° 994.1 hPa 5.9 m/s 0.0 mm 9.3° 995.6 hPa 6.1 m/s
07:00 10.2° 992.9 hPa 8.0 m/s 16.2 mm 9.0° 993.9 hPa 2.5 m/s 62.1 mm 9.7° 993.1 hPa 6.1 m/s 3.4 mm 10.5° 991.3 hPa 10.5 m/s 0.0 mm 9.4° 994.0 hPa 4.6 m/s
10:00 10.0° 993.5 hPa 4.4 m/s 20.9 mm 8.1° 993.7 hPa 1.9 m/s 90.8 mm 10.2° 994.7 hPa 3.4 m/s 1.6 mm 8.1° 994.5 hPa 3.1 m/s
13:00 10.8° 993.6 hPa 2.5 m/s 11.9 mm 9.2° 993.3 hPa 1.5 m/s 106.5 mm 12.1° 995.7 hPa 3.9 m/s 0.0 mm 10.1° 994.5 hPa 2.4 m/s
16:00 11.3° 993.7 hPa 3.1 m/s 12.1 mm 11.3° 993.3 hPa 3.3 m/s 107.2 mm 12.6° 996.4 hPa 3.4 m/s 0.0 mm 10.6° 995.3 hPa 3.4 m/s
19:00 10.2° 995.6 hPa 3.8 m/s 24.1 mm 10.4° 995.4 hPa 4.1 m/s 107.2 mm 10.5° 997.8 hPa 2.1 m/s 0.0 mm 8.2° 997.6 hPa 3.2 m/s
22:00 8.2° 996.9 hPa 2.9 m/s 0.0 mm 8.4° 996.5 hPa 3.4 m/s 107.2 mm 8.8° 998.5 hPa 2.0 m/s 0.0 mm 6.5° 998.9 hPa 2.9 m/s
 08:06     17:39    Daglengte: 9:33 Zondag 31 Okt
01:00 7.2° 997.4 hPa 3.2 m/s 0.0 mm 7.5° 996.5 hPa 3.3 m/s 107.2 mm 7.8° 998.3 hPa 2.1 m/s 0.0 mm 6.0° 998.9 hPa 3.7 m/s
03:00 7.3° 996.2 hPa 4.2 m/s 0.0 mm 7.5° 994.6 hPa 4.6 m/s 107.2 mm 7.5° 996.5 hPa 2.3 m/s 0.0 mm 6.7° 996.6 hPa 4.4 m/s
06:00 7.8° 993.5 hPa 6.1 m/s 12.0 mm 9.5° 991.2 hPa 8.0 m/s 107.2 mm 7.8° 994.2 hPa 3.6 m/s 0.0 mm 9.1° 993.1 hPa 8.5 m/s
09:00 9.3° 989.6 hPa 5.3 m/s 29.4 mm 10.8° 989.4 hPa 7.1 m/s 119.5 mm 9.0° 989.7 hPa 4.8 m/s 2.9 mm 10.2° 991.1 hPa 6.7 m/s
12:00 10.9° 985.0 hPa 5.1 m/s 46.6 mm 11.7° 989.5 hPa 6.0 m/s 129.5 mm 10.7° 983.8 hPa 4.9 m/s 5.1 mm 10.2° 991.3 hPa 4.6 m/s
15:00 10.0° 991.6 hPa 5.4 m/s 52.4 mm 10.0° 991.6 hPa 5.4 m/s 52.4 mm
18:00 6.4° 993.4 hPa 3.8 m/s 52.4 mm 6.4° 993.4 hPa 3.8 m/s 52.4 mm
21:00 6.3° 993.0 hPa 5.0 m/s 52.4 mm 6.3° 993.0 hPa 5.0 m/s 52.4 mm
 08:08     17:37    Daglengte: 9:29 Maandag 01 Nov
00:00 7.0° 992.0 hPa 5.2 m/s 52.4 mm 7.0° 992.0 hPa 5.2 m/s 52.4 mm
03:00 6.0° 990.9 hPa 6.2 m/s 52.4 mm 6.0° 990.9 hPa 6.2 m/s 52.4 mm
06:00 7.7° 989.8 hPa 8.4 m/s 52.5 mm 7.7° 989.8 hPa 8.4 m/s 52.5 mm
09:00 8.1° 991.7 hPa 10.0 m/s 52.9 mm 8.1° 991.7 hPa 10.0 m/s 52.9 mm
12:00 9.1° 994.1 hPa 10.1 m/s 53.2 mm 9.1° 994.1 hPa 10.1 m/s 53.2 mm
15:00 9.7° 996.3 hPa 8.6 m/s 53.5 mm 9.7° 996.3 hPa 8.6 m/s 53.5 mm
18:00 7.9° 997.5 hPa 7.0 m/s 53.5 mm 7.9° 997.5 hPa 7.0 m/s 53.5 mm
21:00 7.0° 997.7 hPa 5.4 m/s 53.5 mm 7.0° 997.7 hPa 5.4 m/s 53.5 mm
 08:10     17:35    Daglengte: 9:25 Dinsdag 02 Nov
00:00 6.7° 996.2 hPa 4.7 m/s 53.6 mm 6.7° 996.2 hPa 4.7 m/s 53.6 mm
03:00 6.5° 993.3 hPa 4.6 m/s 54.0 mm 6.5° 993.3 hPa 4.6 m/s 54.0 mm
06:00 7.2° 991.1 hPa 5.6 m/s 56.6 mm 7.2° 991.1 hPa 5.6 m/s 56.6 mm
09:00 6.9° 990.8 hPa 4.1 m/s 56.6 mm 6.9° 990.8 hPa 4.1 m/s 56.6 mm
12:00 9.5° 990.4 hPa 5.2 m/s 56.7 mm 9.5° 990.4 hPa 5.2 m/s 56.7 mm
15:00 8.9° 989.7 hPa 4.3 m/s 57.0 mm 8.9° 989.7 hPa 4.3 m/s 57.0 mm
18:00 5.5° 991.3 hPa 3.9 m/s 57.1 mm 5.5° 991.3 hPa 3.9 m/s 57.1 mm
21:00 6.0° 993.6 hPa 3.3 m/s 57.1 mm 6.0° 993.6 hPa 3.3 m/s 57.1 mm
 08:11     17:33    Daglengte: 9:22 Woensdag 03 Nov
00:00 6.0° 995.8 hPa 5.5 m/s 57.2 mm 6.0° 995.8 hPa 5.5 m/s 57.2 mm
03:00 6.2° 998.3 hPa 5.9 m/s 58.2 mm 6.2° 998.3 hPa 5.9 m/s 58.2 mm
06:00 4.4° 1001.0 hPa 3.9 m/s 58.2 mm 4.4° 1001.0 hPa 3.9 m/s 58.2 mm
09:00 6.2° 1003.4 hPa 4.9 m/s 58.3 mm 6.2° 1003.4 hPa 4.9 m/s 58.3 mm
12:00 8.7° 1004.8 hPa 6.6 m/s 58.3 mm 8.7° 1004.8 hPa 6.6 m/s 58.3 mm
15:00 8.2° 1006.2 hPa 6.1 m/s 58.5 mm 8.2° 1006.2 hPa 6.1 m/s 58.5 mm
18:00 4.7° 1009.3 hPa 2.6 m/s 58.5 mm 4.7° 1009.3 hPa 2.6 m/s 58.5 mm
21:00 3.5° 1012.0 hPa 2.4 m/s 58.5 mm 3.5° 1012.0 hPa 2.4 m/s 58.5 mm
 08:13     17:32    Daglengte: 9:19 Donderdag 04 Nov
00:00 2.9° 1013.7 hPa 2.4 m/s 58.5 mm 2.9° 1013.7 hPa 2.4 m/s 58.5 mm
03:00 2.7° 1015.0 hPa 2.0 m/s 58.5 mm 2.7° 1015.0 hPa 2.0 m/s 58.5 mm
06:00 3.0° 1016.2 hPa 3.4 m/s 58.5 mm 3.0° 1016.2 hPa 3.4 m/s 58.5 mm
09:00 4.5° 1017.9 hPa 3.5 m/s 58.5 mm 4.5° 1017.9 hPa 3.5 m/s 58.5 mm
12:00 7.1° 1017.9 hPa 4.3 m/s 58.5 mm 7.1° 1017.9 hPa 4.3 m/s 58.5 mm
18:00 6.0° 1016.9 hPa 4.8 m/s 58.6 mm 6.0° 1016.9 hPa 4.8 m/s 58.6 mm
 08:15     17:30    Daglengte: 9:15 Vrijdag 05 Nov
00:00 8.7° 1015.5 hPa 6.9 m/s 58.6 mm 8.7° 1015.5 hPa 6.9 m/s 58.6 mm
06:00 9.9° 1015.0 hPa 6.2 m/s 58.7 mm 9.9° 1015.0 hPa 6.2 m/s 58.7 mm
12:00 11.1° 1017.4 hPa 6.1 m/s 59.1 mm 11.1° 1017.4 hPa 6.1 m/s 59.1 mm
18:00 8.3° 1020.0 hPa 3.7 m/s 59.4 mm 8.3° 1020.0 hPa 3.7 m/s 59.4 mm
 08:17     17:28    Daglengte: 9:11 Zaterdag 06 Nov
00:00 9.3° 1020.9 hPa 4.4 m/s 59.4 mm 9.3° 1020.9 hPa 4.4 m/s 59.4 mm
06:00 8.6° 1019.7 hPa 5.0 m/s 59.4 mm 8.6° 1019.7 hPa 5.0 m/s 59.4 mm
12:00 11.5° 1017.5 hPa 9.3 m/s 60.1 mm 11.5° 1017.4 hPa 9.3 m/s 60.1 mm
18:00 12.1° 1015.7 hPa 8.9 m/s 60.1 mm 12.1° 1015.7 hPa 8.9 m/s 60.1 mm
 08:19     17:26    Daglengte: 9:07 Zondag 07 Nov
00:00 11.9° 1014.7 hPa 8.7 m/s 60.1 mm 11.9° 1014.7 hPa 8.7 m/s 60.1 mm
06:00 5.8° 1013.7 hPa 2.8 m/s 0.5 mm
12:00 8.9° 1013.6 hPa 3.0 m/s 0.5 mm
18:00 6.7° 1013.8 hPa 2.1 m/s 0.8 mm
 08:21     17:25    Daglengte: 9:04 Maandag 08 Nov
00:00 5.7° 1014.8 hPa 2.5 m/s 0.6 mm
06:00 4.8° 1015.6 hPa 2.0 m/s 0.4 mm
12:00 8.4° 1016.7 hPa 2.5 m/s 0.3 mm
18:00 6.6° 1017.3 hPa 2.0 m/s 0.2 mm
 08:22     17:23    Daglengte: 9:01 Dinsdag 09 Nov
00:00 5.8° 1017.7 hPa 2.7 m/s 0.9 mm
06:00 5.6° 1017.6 hPa 2.6 m/s 0.4 mm
12:00 8.5° 1019.4 hPa 3.4 m/s 0.3 mm
18:00 6.6° 1019.8 hPa 2.2 m/s 0.3 mm
 08:24     17:22    Daglengte: 8:58 Woensdag 10 Nov
00:00 5.8° 1019.9 hPa 2.5 m/s 0.4 mm
06:00 5.8° 1019.4 hPa 2.5 m/s 0.4 mm
12:00 9.5° 1019.6 hPa 3.3 m/s 0.3 mm
18:00 7.5° 1019.0 hPa 3.0 m/s 0.2 mm
 08:26     17:20    Daglengte: 8:54 Donderdag 11 Nov
00:00 6.7° 1018.8 hPa 3.5 m/s 0.7 mm
06:00 5.9° 1018.5 hPa 2.6 m/s 0.5 mm
12:00 9.3° 1018.7 hPa 2.9 m/s 0.3 mm
18:00 6.5° 1018.7 hPa 2.2 m/s 0.1 mm
 08:28     17:18    Daglengte: 8:50 Vrijdag 12 Nov
00:00 5.1° 1019.0 hPa 2.3 m/s 0.1 mm
06:00 4.7° 1018.7 hPa 2.2 m/s 0.1 mm
FMI Hirlam - 7.5 km EWN WRFDA - 12 km DWD ICON - 7 km GFS - 25 km Basiskaart






























































Updatetijd (Europe/Brussels) Resolutie Lengte Stap
FMI Hirlam 07:00, 13:00, 19:00, 01:00 7.5 km 49h 1h
EWN WRFDA 09:30, 15:30, 21:30, 03:30 12 km 73h 1h
DWD ICON 11:45, 17:45, 23:45, 05:45 7 km 75h 1h
GFS 08:30, 14:30, 20:30, 02:30 25 km 237h 3h
30+ mm
25-30 mm
20-25 mm
15-20 mm
10-15 mm
6-10 mm
4-6 mm
2-4 mm
1-2 mm
0.5-1 mm
0.2-0.5 mm
0.1-0.2 mm
30+ mm
25-30 mm
20-25 mm
15-20 mm
10-15 mm
6-10 mm
4-6 mm
2-4 mm
1-2 mm
0.5-1 mm
0.2-0.5 mm
0.1-0.2 mm
Sneeuwval
Natte sneeuw
Hagel
Vorst
30+ mm
25-30 mm
20-25 mm
15-20 mm
10-15 mm
6-10 mm
4-6 mm
2-4 mm
1-2 mm
0.5-1 mm
0.2-0.5 mm
0.1-0.2 mm
Sneeuwval
Natte sneeuw
Hagel
Vorst
Onweer
50 mm
40 mm
30 mm
26 mm
22 mm
18 mm
14 mm
10 mm
9 mm
8 mm
7 mm
6 mm
5 mm
4.5 mm
4 mm
3.5 mm
3 mm
2.5 mm
2 mm
1.5 mm
1 mm
0.8 mm
0.6 mm
0.4 mm
0.2 mm
0.05 mm
35°
30°
25°
20°
15°
10°
-5°
-10°
-15°
-20°
-25°
-30°
-35°
33> m/s
29 m/s
25 m/s
21 m/s
17 m/s
14 m/s
11 m/s
8 m/s
5 m/s
3 m/s
0 m/s
2600 J/kg
2400 J/kg
2200 J/kg
2000 J/kg
1800 J/kg
1600 J/kg
1400 J/kg
1200 J/kg
1000 J/kg
800 J/kg
600 J/kg
400 J/kg
200 J/kg
70 dBZ
65 dBZ
60 dBZ
55 dBZ
50 dBZ
45 dBZ
40 dBZ
35 dBZ
30 dBZ
25 dBZ
20 dBZ
15 dBZ
10 dBZ
5 dBZ
-1 K
-2 K
-3 K
-4 K
-5 K
-6 K
-7 K
-8 K
-9 K
950 m²/s²
900 m²/s²
850 m²/s²
800 m²/s²
750 m²/s²
700 m²/s²
650 m²/s²
600 m²/s²
550 m²/s²
500 m²/s²
450 m²/s²
400 m²/s²
350 m²/s²
300 m²/s²
250 m²/s²
200 m²/s²
150 m²/s²
100 m²/s²
46 m/s
44 m/s
42 m/s
40 m/s
38 m/s
36 m/s
34 m/s
32 m/s
30 m/s
28 m/s
26 m/s
24 m/s
22 m/s
20 m/s
16 m/s
12 m/s
8 m/s
4 m/s
30 m/s
28 m/s
26 m/s
24 m/s
22 m/s
20 m/s
18 m/s
16 m/s
14 m/s
12 m/s
10 m/s
8 m/s
6 m/s
4 m/s
2 m/s
3.0
2.8
2.6
2.4
2.2
2.0
1.8
1.6
1.4
1.2
1.0
0.8
0.6
0.4
0.2
15
14
13
12
11
10
9
8
7
6
5
4
3
2
1
90%
80%
70%
60%
50%
40%
30%
20%
10%
42
40
38
36
34
32
30
28
26
24
22
20
18
16
14
12
90+ cm
80-90 cm
70-80 cm
60-70 cm
50-60 cm
40-50 cm
30-40 cm
20-30 cm
10-20 cm
1-10 cm
Sneeuwval
Natte sneeuw
Regen
>120 mm
115 mm
110 mm
105 mm
100 mm
95 mm
90 mm
85 mm
80 mm
75 mm
70 mm
65 mm
60 mm
55 mm
50 mm
45 mm
45 mm
40 mm
35 mm
30 mm
25 mm
20 mm
15 mm
10 mm
5 mm
0.1 mm
960 hPa
880 hPa
800 hPa
720 hPa
640 hPa
560 hPa
584 gpdm
568 gpdm
552 gpdm
536 gpdm
520 gpdm
504 gpdm
488 gpdm
Extreem zwaar Noodweer Kans op onweer
15% 15% 5% 50% 15%

Dag




Kaart